Regional Weather Roundup
Issued by NWS

Home | Current Version | Previous Version | Text Only | Print | Product List | Glossary Off
Versions: 1 2 3 4 5 6 7 8 9 10 11 12 13 14 15 16 17 18 19 20 21 22 23 24 25 26 27 28 29 30 31 32 33 34 35 36 37 38 39 40 41 42 43 44 45 46 47 48 49 50

000
ASUS44 KMEG 041910
RWRTN
TENNESSEE HOURLY STATE WEATHER ROUNDUP
NATIONAL WEATHER SERVICE MEMPHIS TN
200 PM CDT SAT JUL 04 2015

TNZ002-004-019-021-049-052-054-088>092-042000-
WEST TENNESSEE

CITY           SKY/WX    TMP DP  RH WIND       PRES   REMARKS
MEMPHIS INTL   CLOUDY    76  70  82 S9        30.00F
NWS MEMPHIS      N/A     74 N/A N/A MISG        N/A
JACKSON        CLOUDY    75  71  87 SW9       29.99F
DYERSBURG        N/A    N/A N/A N/A MISG        N/A
PARIS          MOSUNNY   79  68  69 VRB3      30.00S
LEXINGTON      MOSUNNY   75  72  88 SW8       29.99F
$$

TNZ008-025-027-028-033-062-065-066-042000-
NORTH MIDDLE TENNESSEE

CITY           SKY/WX    TMP DP  RH WIND       PRES   REMARKS
NASHVILLE      CLOUDY    82  70  66 VRB3      29.99F
CLARKSVILLE    CLOUDY    79  69  71 N8        29.98F
SMYRNA         CLOUDY    81  72  74 CALM      30.00F
COOKEVILLE     CLOUDY    81  72  74 VRB6      30.02S
CROSSVILLE     CLOUDY    75  66  73 W6        30.06F
$$

TNZ061-075-076-078-094-096-097-042000-
SOUTH MIDDLE TENNESSEE

CITY           SKY/WX    TMP DP  RH WIND       PRES   REMARKS
FAYETTEVILLE     N/A     79  68  69 SW8       30.03S
TULLAHOMA      PTSUNNY   75  68  78 W6        30.04F
WINCHESTER     PTSUNNY   77  70  78 VRB7      30.03F
MCMINNVILLE    PTSUNNY   75  73  94 SW8       30.03S
COLUMBIA       MOSUNNY   79  73  83 W6        29.99F
SHELBYVILLE    PTSUNNY   79  72  78 W6          N/A
$$

TNZ017-018-042-046-047-042000-
NORTHEAST TENNESSEE

CITY           SKY/WX    TMP DP  RH WIND       PRES   REMARKS
TRI CITIES     CLOUDY    77  66  68 SW12      30.03F
ELIZABETHTON   MOCLDY    73  66  78 CALM      30.04F
$$

TNZ012-013-036-069-073-074-042000-
CENTRAL EAST TENNESSEE

CITY           SKY/WX    TMP DP  RH WIND       PRES   REMARKS
KNOXVILLE      CLOUDY    75  70  84 SW13      30.02F HAZE
OAK RIDGE      PTSUNNY   79  68  69 S6        30.02F
GATLINBURG     MOCLDY    75  70  83 SW5       30.02F
MORRISTOWN       N/A     77  70  78 W7        30.04F
$$

TNZ083-085-099-042000-
SOUTHEAST TENNESSEE

CITY           SKY/WX    TMP DP  RH WIND       PRES   REMARKS
CHATTANOOGA    CLOUDY    80  67  64 SW5       30.02F
$$

SKY/WX REPORTED AS FAIR MEANS FEW OR NO CLOUDS BELOW
12 THOUSAND FEET.




USA.gov is the U.S. government's official web portal to all federal, state and local government web resources and services.